Weather History for Woodward, OK

Change the Weather History Date:

Saturday, December 8, 2012

  Actual Average (KGAG) Record (KGAG)
Temperature  
Mean Temperature 39 °F -  
Max Temperature 50 °F 48 °F 77 °F (1970)
Min Temperature 28 °F 23 °F -4 °F (2005)
Degree Days  
Heating Degree Days 26    
Moisture  
Dew Point 35 °F    
Average Humidity 86    
Maximum Humidity 100    
Minimum Humidity 66    
Precipitation  
Precipitation 0.00 in - - ()
Sea Level Pressure  
Sea Level Pressure 29.88 in    
Wind  
Wind Speed 4 mph (SE)    
Max Wind Speed 16 mph    
Max Gust Speed 21 mph    
Visibility 9 miles    
Events      
Averages and records for this station are not official NWS values.
T = Trace of Precipitation, MM = Missing Value Source: NWS Daily Summary

Daily Weather History Graph

Daily Weather History Graph

Search for Another Location

Airport:

Trip Planner

Search our weather history database for the weather conditions in past years. The results will help you decide how hot, cold, wet, or windy it might be!

Date:

Astronomy

Dec. 08, 2012 Rise Set
Actual Time 7:37 AM CST 5:22 PM CST
Civil Twilight 7:09 AM CST 5:51 PM CST
Nautical Twilight 6:37 AM CST 6:23 PM CST
Astronomical Twilight 6:05 AM CST 6:54 PM CST
Moon 2:11 AM CST (12/8) 1:47 PM CST (12/8)
Length of Visible Light 10h 42m
Length of Day
9h 44m
Waning Crescent, 28% of the Moon is Illuminated
Dec 8
Waning Crescent
Dec 13
New
Dec 19
First Quarter
Dec 28
Full
Jan 4
Last Quarter

Hourly Weather History & Observations

Time (CST) Temp. Windchill Dew Point Humidity Pressure Visibility Wind Dir Wind Speed Gust Speed Precip Events Conditions
12:15 AM 35.6 °F - 32.0 °F 87% 29.97 in 10.0 mi Calm Calm - N/A   Clear
12:35 AM 33.8 °F 26.4 °F 32.0 °F 93% 29.99 in 10.0 mi North 9.2 mph - N/A   Clear
12:55 AM 33.8 °F 29.6 °F 32.0 °F 93% 29.99 in 7.0 mi NNE 4.6 mph - N/A   Clear
1:15 AM 33.8 °F - 32.0 °F 93% 29.99 in 10.0 mi Calm Calm - N/A   Clear
1:35 AM 33.8 °F - 32.0 °F 93% 29.98 in 10.0 mi Calm Calm - N/A   Clear
1:55 AM 33.8 °F 30.8 °F 32.0 °F 93% 29.99 in 10.0 mi North 3.5 mph - N/A   Clear
2:15 AM 33.8 °F - 32.0 °F 93% 29.99 in 10.0 mi Calm Calm - N/A   Clear
2:35 AM 32.0 °F 26.4 °F 32.0 °F 100% 29.99 in 10.0 mi North 5.8 mph - N/A   Clear
2:55 AM 32.0 °F 28.7 °F 32.0 °F 100% 29.99 in 10.0 mi North 3.5 mph - N/A   Clear
3:15 AM 32.0 °F - 30.2 °F 93% 29.99 in 10.0 mi Calm Calm - N/A   Clear
3:35 AM 32.0 °F - 32.0 °F 100% 29.98 in 10.0 mi Calm Calm - N/A   Clear
3:55 AM 32.0 °F - 30.2 °F 93% 29.98 in 10.0 mi Calm Calm - N/A   Clear
4:15 AM 30.2 °F - 30.2 °F 100% 29.97 in 7.0 mi Calm Calm - N/A   Clear
4:35 AM 32.0 °F - 30.2 °F 93% 29.96 in 7.0 mi Calm Calm - N/A   Clear
4:55 AM 32.0 °F - 30.2 °F 93% 29.96 in 10.0 mi Calm Calm - N/A   Clear
5:15 AM 32.0 °F - 30.2 °F 93% 29.95 in 10.0 mi Calm Calm - N/A   Clear
5:35 AM 32.0 °F - 30.2 °F 93% 29.96 in 10.0 mi Calm Calm - N/A   Clear
5:55 AM 30.2 °F 24.3 °F 28.4 °F 93% 29.96 in 5.0 mi WSW 5.8 mph - N/A   Clear
6:15 AM 30.2 °F 24.3 °F 28.4 °F 93% 29.97 in 5.0 mi SW 5.8 mph - N/A   Clear
6:35 AM 28.4 °F 23.3 °F 28.4 °F 100% 29.97 in 5.0 mi SW 4.6 mph - N/A   Clear
7:15 AM 28.4 °F - 26.6 °F 93% 29.96 in 1.2 mi Calm Calm - N/A   Mist
7:35 AM 30.2 °F - 28.4 °F 93% 29.97 in 5.0 mi Calm Calm - N/A   Clear
7:55 AM 30.2 °F - 28.4 °F 93% 29.96 in 10.0 mi Calm Calm - N/A   Clear
8:15 AM 30.2 °F 26.7 °F 28.4 °F 93% 29.96 in 7.0 mi WSW 3.5 mph - N/A   Clear
8:35 AM 32.0 °F 28.7 °F 30.2 °F 93% 29.96 in 5.0 mi WSW 3.5 mph - N/A   Clear
8:55 AM 32.0 °F - 30.2 °F 93% 29.96 in 7.0 mi Calm Calm - N/A   Clear
9:15 AM 32.0 °F - 30.2 °F 93% 29.97 in 10.0 mi Calm Calm - N/A   Scattered Clouds
9:35 AM 33.8 °F - 30.2 °F 87% 29.97 in 10.0 mi Calm Calm - N/A   Overcast
9:55 AM 35.6 °F - 32.0 °F 87% 29.97 in 10.0 mi Calm Calm - N/A   Overcast
10:15 AM 37.4 °F 34.9 °F 30.2 °F 75% 29.96 in 10.0 mi ENE 3.5 mph - N/A   Overcast
10:35 AM 37.4 °F 32.8 °F 30.2 °F 75% 29.96 in 10.0 mi ENE 5.8 mph - N/A   Overcast
10:55 AM 39.2 °F 37.0 °F 32.0 °F 75% 29.95 in 10.0 mi ESE 3.5 mph - N/A   Overcast
11:15 AM 41.0 °F 38.0 °F 32.0 °F 70% 29.94 in 10.0 mi East 4.6 mph - N/A   Overcast
11:35 AM 41.0 °F 39.0 °F 32.0 °F 70% 29.93 in 10.0 mi East 3.5 mph - N/A   Overcast
11:55 AM 42.8 °F 41.1 °F 33.8 °F 70% 29.91 in 10.0 mi East 3.5 mph - N/A   Overcast
12:15 PM 42.8 °F 39.3 °F 33.8 °F 70% 29.89 in 10.0 mi ESE 5.8 mph - N/A   Overcast
12:35 PM 44.6 °F 41.4 °F 35.6 °F 71% 29.88 in 10.0 mi SSE 5.8 mph - N/A   Overcast
12:55 PM 44.6 °F 41.4 °F 35.6 °F 71% 29.88 in 10.0 mi SSE 5.8 mph - N/A   Overcast
1:15 PM 44.6 °F 40.2 °F 35.6 °F 71% 29.87 in 10.0 mi SSE 8.1 mph - N/A   Overcast
1:35 PM 46.4 °F 42.9 °F 35.6 °F 66% 29.86 in 10.0 mi SSE 6.9 mph - N/A   Overcast
1:55 PM 48.2 °F - 37.4 °F 66% 29.84 in 10.0 mi SSE 8.1 mph - N/A   Overcast
2:15 PM 50.0 °F - 39.2 °F 66% 29.83 in 10.0 mi SSE 12.7 mph - N/A   Overcast
2:55 PM 50.0 °F - 39.2 °F 66% 29.80 in 10.0 mi SSE 16.1 mph - N/A   Scattered Clouds
3:15 PM 48.2 °F - 39.2 °F 71% 29.79 in 10.0 mi SSE 12.7 mph 20.7 mph N/A   Clear
3:55 PM 46.4 °F 41.1 °F 39.2 °F 76% 29.78 in 10.0 mi SSE 11.5 mph - N/A   Clear
4:15 PM 48.2 °F - 39.2 °F 71% 29.77 in 10.0 mi SE 12.7 mph - N/A   Clear
4:35 PM 46.4 °F 40.7 °F 39.2 °F 76% 29.78 in 10.0 mi SE 12.7 mph - N/A   Clear
4:55 PM 46.4 °F 40.7 °F 39.2 °F 76% 29.77 in 10.0 mi SE 12.7 mph - N/A   Clear
5:15 PM 44.6 °F 39.7 °F 39.2 °F 81% 29.77 in 10.0 mi SE 9.2 mph - N/A   Clear
5:35 PM 44.6 °F 38.4 °F 39.2 °F 81% 29.76 in 10.0 mi SE 12.7 mph - N/A   Clear
5:55 PM 42.8 °F 37.0 °F 39.2 °F 87% 29.77 in 10.0 mi SE 10.4 mph - N/A   Clear
6:15 PM 42.8 °F 37.0 °F 39.2 °F 87% 29.77 in 10.0 mi SE 10.4 mph - N/A   Clear
6:35 PM 42.8 °F 37.5 °F 39.2 °F 87% 29.77 in 10.0 mi SE 9.2 mph - N/A   Scattered Clouds
6:55 PM 42.8 °F 35.8 °F 39.2 °F 87% 29.76 in 7.0 mi SE 13.8 mph - N/A   Mostly Cloudy
7:15 PM 42.8 °F 36.2 °F 39.2 °F 87% 29.78 in 7.0 mi SE 12.7 mph 16.1 mph N/A   Overcast
7:35 PM 42.8 °F 35.1 °F 39.2 °F 87% 29.78 in 7.0 mi SSE 16.1 mph - N/A   Overcast
7:55 PM 42.8 °F 36.6 °F 41.0 °F 93% 29.79 in 7.0 mi SE 11.5 mph - N/A   Overcast
8:15 PM 42.8 °F 37.5 °F 41.0 °F 93% 29.79 in 7.0 mi SSE 9.2 mph - N/A   Overcast
8:35 PM 42.8 °F 37.5 °F 41.0 °F 93% 29.79 in 7.0 mi SE 9.2 mph - N/A   Overcast
8:55 PM 42.8 °F 36.6 °F 41.0 °F 93% 29.77 in 7.0 mi SE 11.5 mph - N/A   Overcast
9:15 PM 44.6 °F 38.4 °F 41.0 °F 87% 29.77 in 7.0 mi SSE 12.7 mph - N/A   Overcast
9:35 PM 44.6 °F 39.7 °F 41.0 °F 87% 29.77 in 7.0 mi SSE 9.2 mph - N/A   Overcast
9:55 PM 44.6 °F 39.7 °F 41.0 °F 87% 29.78 in 7.0 mi SE 9.2 mph 12.7 mph N/A   Overcast
10:35 PM 44.6 °F 39.2 °F 41.0 °F 87% 29.78 in 7.0 mi ESE 10.4 mph - N/A   Overcast
10:55 PM 44.6 °F 40.2 °F 41.0 °F 87% 29.77 in 7.0 mi SE 8.1 mph - N/A   Overcast
11:15 PM 44.6 °F 40.2 °F 41.0 °F 87% 29.78 in 7.0 mi SE 8.1 mph - N/A   Overcast
11:35 PM 44.6 °F 42.2 °F 42.8 °F 93% 29.78 in 7.0 mi East 4.6 mph - N/A   Overcast
11:55 PM 44.6 °F 42.2 °F 42.8 °F 93% 29.79 in 7.0 mi ENE 4.6 mph - N/A   Overcast